Location: Buchloe
(48.0161°N, 10.7316°E)
Time: 03:06:19
(UTC+02:00)

ISS - Pass Details

Date: 15 July 2025
Orbit: 413 x 417 km, 51.6° (Epoch: 12 July)

Event Time Altitude Azimuth Distance (km) Brightness Sun altitude
Rises 23:32:08 0° 288° (WNW) 2,353 0.8 -16.3°
Reaches altitude 10° 23:34:16 10° 294° (WNW) 1,490 -0.2 -16.4°
Maximum altitude 23:37:32 51° 12° (NNE) 531 -3.0 -16.7°
Enters shadow 23:39:56 17° 85° (E) 1,154 -1.7 -16.9°
